CAPE
0 0 2 119 343 330 209 36 0 0 0 0 0 2 54 42 8 0 0 0 0 0 5 1 0 0 0 0 0 0 0 0 0 5 3 1 0 0 0 0 0 1 7
0 0 0 109 301 372 147 10 0 0 0 0 0 15 56 11 5 0 0 3 0 3 3 0 0 0 0 0 0 0 0 0 1 1 3 1 0 0 0 0 0 0 0
0 0 0 20 0 174 194 48 0 0 0 0 53 46 1 9 2 0 0 0 0 3 0 0 0 0 1 1 0 0 0 0 0 0 1 0 0 0 0 0 0 0 0
0 0 0 0 0 0 81 57 58 72 77 36 22 27 9 10 0 0 0 0 0 0 0 0 0 0 0 0 0 0 0 0 0 0 0 0 0 0 0 0 0 0 0
0 0 0 0 23 59 3 2 0 0 2 14 2 4 1 2 0 0 0 0 0 1 1 0 0 1 1 0 0 0 0 0 0 0 0 0 0 0 0 0 0 0 0
0 0 0 0 64 94 3 2 0 0 4 0 4 4 1 1 1 1 0 0 0 0 0 0 2 4 4 3 0 0 0 0 0 0 0 0 0 0 0 0 0 0 0
0 0 0 1 47 37 19 1 0 1 17 18 1 1 1 1 5 2 1 0 0 0 0 0 0 0 0 0 0 0 0 0 0 0 0 0 0 0 0 0 0 0 0
0 0 1 7 3 13 17 1 0 1 1 1 1 1 1 2 3 0 0 0 0 0 0 0 0 0 0 0 0 0 0 0 0 0 0 0 0 0 0 0 0 0 0
0 0 0 3 6 5 1 1 1 1 3 3 2 2 1 1 1 0 0 0 0 0 0 0 0 0 0 0 0 0 0 0 0 0 0 0 0 0 0 0 0 0 0
0 0 0 1 6 1 0 0 0 0 1 2 2 1 2 1 1 0 0 0 0 0 0 0 0 0 0 0 0 0 0 0 0 0 0 0 0 0 0 0 0 0 0
2 0 0 1 2 0 0 0 0 0 0 1 1 1 0 0 0 0 0 0 0 0 0 0 0 0 0 0 0 0 0 0 0 0 0 0 0 0 0 0 0 0 0
1 0 0 0 1 0 0 0 0 0 0 0 1 1 2 2 1 0 0 0 0 0 0 0 0 0 0 0 0 0 0 0 0 0 0 0 0 0 0 0 0 0 0
0 0 1 4 0 0 0 0 0 0 0 1 1 3 6 4 2 0 0 0 0 0 0 0 2 0 0 0 0 0 0 0 0 0 0 0 0 0 0 0 0 0 0
0 0 1 3 1 1 0 0 0 0 0 0 0 1 1 1 0 0 0 0 0 0 0 0 0 0 0 0 0 0 0 0 0 0 0 0 0 0 0 0 0 0 0
0 1 1 2 0 1 0 0 0 0 0 0 0 0 0 0 0 0 0 0 0 0 0 0 0 0 0 0 0 0 0 0 0 0 0 0 0 0 0 0 0 0 0
2 3 4 1 1 1 1 3 3 0 0 0 0 0 0 0 0 0 0 0 0 0 0 0 0 0 0 0 0 0 0 0 0 0 0 0 0 0 0 0 0 0 0
1 5 2 1 1 1 2 1 1 3 4 0 1 2 0 0 2 2 0 0 0 0 0 0 0 0 0 0 0 0 0 0 0 0 0 0 0 0 0 0 0 0 0
3 0 1 0 1 0 0 0 1 2 4 7 7 1 3 3 3 0 0 0 0 0 0 0 0 0 0 0 0 0 0 0 0 0 0 0 0 0 0 0 0 0 0
1 1 1 0 0 0 0 0 0 0 1 1 2 4 2 0 0 0 0 0 0 0 0 0 0 0 0 0 0 0 0 0 0 0 0 0 0 0 0 0 0 0 0
1 0 0 0 0 0 0 0 0 0 0 1 1 0 0 0 0 0 0 0 0 0 0 0 0 0 0 0 0 0 0 0 0 0 0 0 0 0 0 0 0 0 0
1 1 1 0 0 0 0 0 0 0 0 0 0 0 0 0 0 0 0 0 0 0 0 0 0 0 0 0 0 0 0 0 0 0 0 0 0 0 0 0 0 0 0
1 1 1 1 1 0 0 0 0 0 0 0 0 0 0 0 0 0 0 0 0 0 0 0 0 0 0 0 0 0 0 0 0 0 0 0 0 0 0 0 0 0 0
2 2 2 1 0 2 0 0 0 0 0 0 0 0 0 0 0 0 0 0 0 0 0 0 0 0 0 0 0 0 0 0 0 0 0 0 0 0 0 0 0 0 0
2 2 1 1 0 0 0 0 0 0 0 0 0 0 0 0 0 0 0 0 0 0 0 0 0 0 0 0 0 0 0 0 0 0 0 0 0 0 0 0 0 0 0
1 1 1 0 0 0 0 0 0 0 0 0 0 0 0 0 0 0 0 0 0 0 0 0 0 0 0 0 0 0 0 0 0 0 0 0 0 0 0 0 0 0 0
0 0 1 0 0 0 0 0 0 0 0 0 0 0 0 0 0 0 0 0 0 0 0 0 0 0 0 0 0 0 0 0 0 0 0 0 0 0 0 0 0 0 0
CIN
0 0 -117 -201 -62 -81 -126 -235 0 0 0 0 0 -35 -29 -49 -186 0 0 0 0 0 -32 -26 0 0 0 0 0 0 0 0 0 0 0 0 0 0 0 0 0 0 -1
0 0 -28 -132 -49 -18 -111 -205 0 0 0 0 0 -106 -13 -75 -105 0 0 -38 -21 -26 -26 -8 0 0 0 0 0 0 0 0 0 0 0 0 0 0 0 0 0 0 0
0 0 0 -86 0 -43 -39 -126 -11 0 0 0 -24 -37 -51 -71 -81 0 0 0 -17 -24 -29 -21 0 0 0 0 0 0 0 0 0 0 0 0 0 0 0 0 0 0 0
0 0 0 0 0 0 -40 -52 -85 -76 -76 -51 -44 -52 -67 -102 -15 0 0 0 0 0 0 0 0 0 0 0 0 0 0 0 0 0 0 0 0 0 0 0 0 0 0
0 0 0 0 -48 -65 -27 -17 -32 0 -35 -89 -58 -53 -59 -114 0 0 0 0 0 0 0 0 0 0 0 0 0 0 0 0 0 0 0 0 0 0 0 0 0 0 0
0 0 0 0 -44 -43 -39 -34 0 0 -55 -53 -32 -31 0 0 0 0 0 0 0 0 0 0 0 0 0 0 0 0 0 0 0 0 0 0 0 0 0 0 0 0 0
0 0 0 -1 -51 -16 -34 -68 0 0 -21 -15 0 0 0 0 0 0 0 0 0 0 0 0 0 0 0 0 0 0 0 0 0 0 0 0 0 0 0 0 0 0 0
0 0 0 0 -48 -62 -25 0 0 -14 0 0 0 0 0 0 0 0 0 0 0 0 0 0 0 0 0 0 0 0 0 0 0 0 0 0 0 0 0 0 0 0 0
0 0 0 0 -133 -110 -31 0 0 -14 -50 -49 0 0 0 0 0 0 0 0 0 0 0 0 0 0 0 0 0 0 0 0 0 0 0 0 0 0 0 0 0 0 0
-1 0 0 0 -14 0 0 0 0 0 0 0 0 0 0 0 0 0 0 0 0 0 0 0 0 0 0 0 0 0 0 0 0 0 0 0 0 0 0 0 0 0 0
-1 0 0 0 0 0 0 0 0 0 0 0 0 0 0 0 0 0 0 0 0 0 0 0 0 0 0 0 0 0 0 0 0 0 0 0 0 0 0 0 0 0 0
-1 0 0 0 0 0 0 0 0 0 0 0 0 0 0 -1 0 0 0 0 0 0 0 0 0 0 0 0 0 0 0 0 0 0 0 0 0 0 0 0 0 0 0
0 0 0 0 0 0 0 0 0 0 0 0 0 0 0 0 -1 0 0 0 0 0 0 0 0 0 0 0 0 0 0 0 0 0 0 0 0 0 0 0 0 0 0
0 0 0 0 0 0 0 0 0 0 0 0 0 0 0 -1 0 0 0 0 0 0 0 0 0 0 0 0 0 0 0 0 0 0 0 0 0 0 0 0 0 0 0
0 0 0 0 0 0 0 0 0 0 0 0 0 0 0 0 0 0 0 0 0 0 0 0 0 0 0 0 0 0 0 0 0 0 0 0 0 0 0 0 0 0 0
0 0 0 0 0 0 0 0 -1 0 0 0 0 0 0 0 0 0 0 0 0 0 0 0 0 0 0 0 0 0 0 0 0 0 0 0 0 0 0 0 0 0 0
0 0 0 0 0 0 0 0 0 0 -1 0 0 0 0 0 0 0 0 0 0 0 0 0 0 0 0 0 0 0 0 0 0 0 0 0 0 0 0 0 0 0 0
0 0 0 0 0 0 0 0 0 0 0 0 0 0 0 0 0 0 0 0 0 0 0 0 0 0 0 0 0 0 0 0 0 0 0 0 0 0 0 0 0 0 0
0 0 0 0 0 -1 -1 0 -1 -1 0 0 0 0 0 0 0 0 0 0 0 0 0 0 0 0 0 0 0 0 0 0 0 0 0 0 0 0 0 0 0 0 0
0 0 0 0 0 0 -1 -1 0 0 0 0 0 -1 0 0 0 0 0 0 0 0 0 0 0 0 0 0 0 0 0 0 0 0 0 0 0 0 0 0 0 0 0
0 0 0 -1 -1 -1 -1 -1 -1 -1 0 0 0 0 0 0 0 0 0 0 0 0 0 0 0 0 0 0 0 0 0 0 0 0 0 0 0 0 0 0 0 0 0
0 0 -1 -1 -1 -1 -1 -1 -1 0 0 0 0 0 0 0 0 0 0 0 0 0 0 0 0 0 0 0 0 0 0 0 0 0 0 0 0 0 0 0 0 0 0
0 0 0 -1 -1 0 0 0 0 0 0 0 0 0 0 0 0 0 0 0 0 0 0 0 0 0 0 0 0 0 0 0 0 0 0 0 0 0 0 0 0 0 0
0 0 0 0 -1 0 -1 -1 0 0 0 0 0 0 0 0 0 0 0 0 0 0 0 0 0 0 0 0 0 0 0 0 0 0 0 0 0 0 0 0 0 0 0
0 0 0 -1 0 0 -1 0 0 0 0 0 0 0 0 0 0 0 0 0 0 0 0 0 0 0 0 0 0 0 0 0 0 0 0 0 0 0 0 0 0 0 0
0 0 0 -1 0 0 0 0 0 0 0 0 0 0 0 0 0 0 0 0 0 0 0 0 0 0 0 0 0 0 0 0 0 0 0 0 0 0 0 0 0 0 0
Wind_Speed
7 7 10 10 8 2 5 4 3 9 13 13 12 8 5 7 11 10 9 11 10 7 6 9 7 5 6 4 5 4 5 5 7 3 2 5 7 8 8 9 10 10 10
7 6 11 8 10 3 1 4 6 5 7 11 15 16 7 5 11 12 12 11 11 8 9 11 8 6 7 6 6 6 5 5 5 8 2 3 6 5 5 8 7 6 7
9 7 11 9 6 5 3 4 5 5 3 8 9 14 14 9 12 11 11 10 11 8 9 10 8 8 7 7 6 6 6 7 7 7 3 2 2 2 5 5 5 6 6
11 8 9 10 6 10 2 3 6 5 7 7 8 10 12 14 12 12 12 12 12 10 11 10 9 8 9 9 7 7 8 9 8 7 5 3 3 2 4 5 7 7 6
12 12 10 13 5 7 2 5 6 6 7 10 12 10 12 14 10 13 14 14 14 12 12 12 11 14 17 12 6 7 9 9 7 7 6 5 4 4 3 1 4 2 6
12 13 12 11 5 2 2 4 7 7 10 11 12 12 12 9 20 20 17 14 14 15 14 15 13 19 20 23 22 19 11 8 10 7 4 6 4 2 3 2 2 3 3
11 13 12 10 6 1 3 5 7 8 10 11 12 13 14 15 26 25 24 13 14 14 15 15 14 11 16 16 25 28 27 26 19 9 10 4 4 3 3 5 6 5 3
12 13 12 11 4 3 4 6 7 7 10 10 13 13 15 15 27 27 26 15 14 15 15 15 15 12 12 13 16 17 16 14 12 9 8 6 6 5 5 5 7 6 4
12 12 14 14 3 3 5 9 7 9 9 10 12 15 17 15 27 28 22 16 17 14 15 14 13 11 20 22 17 17 14 13 20 24 23 23 23 21 11 7 4 4 4
13 13 14 11 7 4 6 9 6 9 11 9 12 14 20 16 26 28 21 13 17 13 14 14 20 15 23 22 15 13 14 9 10 10 9 14 15 19 21 9 5 6 3
12 11 13 10 6 7 8 7 10 10 12 12 13 12 14 15 17 25 26 14 14 13 10 9 9 23 24 23 18 11 13 11 15 9 8 6 5 6 6 6 5 7 4
10 10 12 14 5 7 12 8 11 13 14 14 14 12 10 12 21 24 26 24 21 14 11 9 14 25 24 23 16 25 24 15 7 7 6 5 4 4 4 4 5 5 4
10 9 9 12 9 9 11 11 9 11 11 11 11 12 11 10 12 27 29 28 26 14 10 18 25 24 24 20 23 22 16 7 6 7 6 4 3 3 5 4 5 6 6
10 9 7 4 9 10 9 9 9 9 10 11 12 12 12 12 12 11 13 16 25 17 21 14 17 18 18 17 13 10 6 5 5 5 4 3 3 4 4 3 4 3 4
9 6 6 5 11 9 8 8 9 9 13 13 12 13 15 12 11 18 16 12 11 14 14 10 8 8 9 8 7 6 5 5 6 4 5 4 4 4 4 3 3 3 4
8 5 5 7 8 9 10 9 13 16 17 18 19 15 11 22 28 26 27 26 26 24 10 10 8 7 8 7 7 5 4 8 4 5 4 4 4 4 4 3 4 3 4
9 9 9 11 9 10 11 12 13 15 18 19 23 24 26 26 27 27 29 27 23 17 10 8 8 7 7 6 5 5 5 4 5 5 4 4 4 4 5 3 3 3 2
11 17 9 10 10 10 12 12 12 13 13 12 17 21 26 28 27 27 26 20 10 8 8 9 8 7 6 6 5 6 5 5 4 4 4 4 4 3 3 3 3 3 3
12 9 10 10 10 13 12 12 12 14 12 12 13 17 21 26 24 21 18 8 9 8 7 7 7 7 6 5 5 5 6 5 4 4 4 4 4 3 4 4 4 8 7
10 18 14 12 11 12 11 12 12 13 13 12 11 11 12 13 8 7 7 7 7 7 7 8 6 6 6 6 6 5 5 5 4 4 4 4 4 4 4 4 4 3 3
9 10 18 11 12 11 11 12 12 12 12 11 11 10 17 8 8 9 7 6 7 7 7 7 6 6 5 5 6 6 5 5 4 4 4 4 4 4 4 4 4 4 4
10 10 10 11 11 11 11 11 11 12 12 12 11 11 16 6 7 8 7 6 5 6 6 7 6 6 5 5 6 6 6 5 4 4 4 4 4 4 4 4 4 4 4
9 10 11 10 11 17 11 10 11 11 11 12 12 10 8 7 7 8 7 6 6 7 6 6 7 6 4 4 4 5 7 5 5 5 5 4 4 4 4 4 3 3 3
7 11 12 11 11 11 11 11 10 12 12 12 11 9 9 8 9 9 7 6 6 6 6 6 6 8 6 5 4 5 5 5 4 5 6 5 5 5 4 4 4 5 4
7 8 11 12 12 11 12 11 11 11 11 11 10 9 9 9 9 9 7 6 7 7 7 6 5 9 9 9 8 8 10 12 7 8 5 6 6 6 4 4 4 4 4
7 7 9 10 10 11 11 11 11 11 11 9 9 9 9 9 9 9 7 8 7 6 7 6 8 9 10 8 9 11 12 12 9 11 6 5 5 4 4 5 6 4 5
Wind_Direction
314 320 325 316 322 28 149 155 194 163 147 122 122 111 114 183 125 115 116 117 113 123 118 112 96 101 91 82 73 61 75 93 114 94 67 23 35 44 42 50 50 55 56
307 337 334 316 337 348 176 194 192 202 160 135 131 144 138 158 115 119 123 123 120 113 109 107 103 89 84 80 73 64 79 76 114 112 79 63 53 30 47 60 54 53 57
333 346 349 328 336 346 352 183 165 161 173 115 140 138 140 132 113 115 113 110 100 106 101 102 102 95 89 81 74 75 76 84 95 112 109 84 91 57 63 44 31 23 34
336 338 340 326 338 330 261 123 124 124 116 119 118 132 138 119 112 111 106 98 92 87 88 90 86 89 93 92 88 93 100 96 98 102 94 95 97 82 76 89 61 44 31
341 334 327 338 277 330 126 93 95 95 111 110 111 111 121 113 119 113 110 105 99 92 86 86 86 94 96 97 102 96 98 96 95 84 71 71 55 39 65 84 96 80 40
338 322 318 325 282 117 152 104 97 88 111 119 119 119 109 109 114 112 117 104 101 97 90 84 87 90 95 99 92 88 88 101 99 99 73 77 50 71 42 79 76 46 37
328 320 318 318 303 115 55 96 100 102 111 117 114 112 109 109 112 111 105 101 102 103 101 98 89 77 81 85 83 80 79 80 82 92 87 65 66 2 80 68 69 79 76
324 324 326 326 283 121 141 116 103 100 103 111 114 115 109 113 114 109 103 100 98 96 96 93 95 97 98 102 94 86 81 78 75 78 86 96 88 55 70 127 123 113 83
326 324 327 338 249 164 151 131 117 110 103 110 115 115 112 119 119 114 108 103 99 92 89 92 96 106 113 107 99 96 87 81 80 80 79 78 72 70 69 87 30 82 72
319 322 319 318 268 152 127 128 112 111 107 109 104 109 117 119 123 118 114 113 103 101 96 98 107 114 109 105 100 103 98 91 92 80 68 62 57 65 66 65 71 74 90
307 312 308 297 261 120 92 88 105 101 102 100 98 103 110 118 116 115 116 110 111 107 104 109 113 112 109 107 102 104 109 111 94 87 80 64 55 63 63 61 68 82 76
296 305 309 311 160 122 113 103 103 107 108 107 106 99 100 110 114 112 109 109 112 107 108 112 116 115 114 113 108 109 107 98 91 85 84 69 61 61 58 72 74 65 62
289 293 297 297 134 126 119 112 108 110 111 113 112 111 110 107 102 110 112 111 106 100 112 124 120 117 111 104 108 108 101 93 94 92 87 74 65 70 79 65 61 60 51
269 285 288 259 125 123 117 120 119 123 119 123 119 122 120 118 115 115 112 114 114 115 117 105 105 103 100 102 96 90 93 95 107 101 91 73 48 48 59 62 69 58 48
250 256 267 165 121 117 114 126 129 131 136 134 133 130 133 131 130 131 128 124 120 124 110 98 99 97 94 91 81 80 75 71 86 81 84 81 69 66 55 56 64 55 65
212 216 183 139 119 118 109 96 81 114 115 120 126 127 113 122 126 126 126 126 130 127 111 110 108 104 107 108 103 91 78 96 82 84 78 82 83 76 69 55 65 75 75
179 168 141 129 125 120 120 113 108 85 102 108 112 119 121 129 127 128 127 127 130 124 113 116 116 117 118 108 105 102 104 91 90 81 86 88 82 74 84 67 62 74 73
161 140 134 126 125 123 121 121 122 123 117 111 112 121 123 124 127 130 129 123 117 105 114 123 122 124 119 117 111 108 101 91 83 86 81 85 85 90 75 66 60 65 53
131 128 128 126 122 122 119 120 120 117 114 113 114 111 123 126 129 120 118 116 127 123 120 116 123 124 121 117 113 106 107 103 103 96 86 88 85 86 74 61 60 68 61
123 127 124 122 124 124 123 123 123 121 123 122 124 129 134 125 115 104 104 112 122 121 122 123 124 121 122 123 118 113 99 98 101 97 98 94 85 84 80 71 67 63 43
121 125 130 125 128 128 126 129 127 127 125 129 130 135 137 123 125 120 120 122 130 127 127 128 125 122 120 121 119 114 110 110 108 109 105 99 93 81 81 75 73 63 59
128 131 131 130 127 127 127 127 127 126 131 131 127 137 126 112 118 118 117 118 118 121 127 129 126 129 134 137 132 125 121 119 118 114 108 101 96 88 86 80 68 58 56
129 128 125 125 123 124 123 125 129 130 131 130 135 134 130 127 122 122 124 125 126 124 120 123 126 122 121 122 122 130 131 136 142 132 119 111 105 96 90 85 75 62 58
126 134 130 125 130 126 129 130 129 129 133 136 137 133 133 132 129 125 123 125 124 123 122 124 127 133 129 123 122 121 119 124 127 126 122 115 109 106 94 84 82 69 62
116 128 132 133 132 131 131 131 132 135 138 137 134 129 128 129 128 126 128 129 132 130 129 128 125 135 134 132 133 133 132 126 125 126 111 110 112 108 102 92 90 80 76
107 121 128 128 129 133 135 135 138 140 139 136 133 133 134 134 133 133 137 137 136 130 134 131 136 135 134 132 136 137 129 126 123 123 116 109 109 102 97 103 98 92 91